QPF
0.08 0.10 0.10 0.11 0.11 0.11 0.11 0.12 0.12 0.11 0.10 0.07 0.07 0.10 0.14 0.13 0.09 0.09 0.10 0.11 0.14 0.16 0.15 0.15 0.12 0.08 0.10 0.09 0.07 0.05 0.04 0.04 0.04 0.04 0.05 0.06 0.08 0.10 0.13 0.11 0.12 0.11 0.09
0.11 0.11 0.11 0.12 0.11 0.13 0.11 0.10 0.08 0.08 0.08 0.08 0.09 0.12 0.13 0.11 0.09 0.09 0.09 0.11 0.15 0.15 0.15 0.13 0.09 0.08 0.09 0.08 0.06 0.04 0.03 0.03 0.03 0.03 0.03 0.03 0.04 0.08 0.14 0.15 0.14 0.11 0.09
0.11 0.11 0.12 0.13 0.14 0.13 0.10 0.09 0.09 0.08 0.08 0.08 0.08 0.10 0.10 0.09 0.08 0.09 0.09 0.11 0.13 0.13 0.11 0.09 0.08 0.08 0.09 0.08 0.07 0.05 0.03 0.04 0.04 0.03 0.03 0.03 0.04 0.06 0.11 0.15 0.15 0.14 0.10
0.09 0.10 0.10 0.11 0.12 0.10 0.08 0.08 0.08 0.08 0.09 0.08 0.08 0.07 0.08 0.08 0.08 0.09 0.09 0.09 0.12 0.13 0.10 0.08 0.08 0.07 0.08 0.07 0.06 0.06 0.05 0.05 0.04 0.04 0.03 0.03 0.05 0.08 0.11 0.13 0.14 0.15 0.14
0.06 0.08 0.09 0.10 0.10 0.09 0.08 0.07 0.08 0.09 0.10 0.10 0.07 0.08 0.10 0.09 0.10 0.10 0.10 0.11 0.13 0.12 0.10 0.09 0.08 0.05 0.05 0.06 0.06 0.05 0.06 0.07 0.05 0.05 0.04 0.04 0.05 0.06 0.08 0.09 0.13 0.15 0.14
0.04 0.05 0.07 0.09 0.09 0.09 0.09 0.09 0.10 0.09 0.11 0.10 0.08 0.10 0.11 0.09 0.11 0.11 0.11 0.10 0.12 0.09 0.08 0.08 0.08 0.07 0.05 0.04 0.04 0.04 0.05 0.06 0.05 0.04 0.04 0.04 0.05 0.06 0.07 0.07 0.08 0.12 0.12
0.04 0.07 0.06 0.09 0.10 0.11 0.10 0.10 0.12 0.10 0.11 0.11 0.12 0.11 0.10 0.09 0.09 0.09 0.08 0.08 0.08 0.08 0.09 0.08 0.08 0.06 0.07 0.06 0.03 0.03 0.04 0.05 0.04 0.04 0.04 0.04 0.04 0.05 0.05 0.06 0.06 0.07 0.07
0.05 0.05 0.07 0.08 0.10 0.11 0.11 0.12 0.14 0.12 0.10 0.13 0.14 0.13 0.13 0.13 0.10 0.09 0.07 0.06 0.06 0.08 0.08 0.07 0.08 0.07 0.07 0.07 0.03 0.02 0.03 0.03 0.04 0.03 0.03 0.03 0.03 0.03 0.04 0.05 0.06 0.06 0.06
0.04 0.05 0.05 0.07 0.11 0.13 0.15 0.15 0.15 0.14 0.13 0.13 0.13 0.13 0.13 0.14 0.12 0.11 0.09 0.06 0.05 0.07 0.07 0.06 0.07 0.08 0.06 0.05 0.05 0.04 0.03 0.03 0.03 0.04 0.04 0.03 0.04 0.03 0.03 0.03 0.04 0.05 0.04
0.04 0.03 0.03 0.05 0.09 0.10 0.13 0.12 0.13 0.15 0.15 0.14 0.15 0.14 0.13 0.12 0.12 0.13 0.11 0.08 0.07 0.06 0.05 0.04 0.07 0.08 0.07 0.06 0.06 0.05 0.03 0.02 0.03 0.04 0.04 0.03 0.03 0.02 0.02 0.03 0.03 0.04 0.05
0.05 0.03 0.03 0.04 0.05 0.07 0.08 0.08 0.10 0.11 0.14 0.14 0.14 0.13 0.12 0.13 0.12 0.12 0.11 0.11 0.10 0.06 0.04 0.04 0.06 0.06 0.06 0.06 0.06 0.05 0.05 0.04 0.03 0.03 0.03 0.02 0.02 0.02 0.02 0.03 0.03 0.04 0.06
0.04 0.03 0.03 0.04 0.04 0.05 0.06 0.07 0.08 0.09 0.12 0.13 0.15 0.13 0.11 0.12 0.13 0.12 0.08 0.09 0.09 0.07 0.05 0.03 0.04 0.04 0.04 0.06 0.03 0.03 0.03 0.03 0.02 0.02 0.01 0.02 0.03 0.03 0.03 0.03 0.04 0.05 0.06
0.05 0.05 0.04 0.04 0.04 0.04 0.04 0.05 0.07 0.09 0.09 0.10 0.11 0.12 0.12 0.11 0.12 0.12 0.08 0.07 0.08 0.08 0.08 0.05 0.04 0.04 0.04 0.05 0.03 0.03 0.04 0.02 0.02 0.02 0.03 0.03 0.04 0.05 0.04 0.04 0.04 0.04 0.04
0.04 0.03 0.03 0.03 0.03 0.04 0.04 0.06 0.07 0.08 0.07 0.08 0.09 0.14 0.15 0.12 0.11 0.12 0.10 0.08 0.08 0.08 0.08 0.06 0.04 0.03 0.04 0.04 0.02 0.03 0.02 0.02 0.02 0.02 0.04 0.05 0.05 0.04 0.04 0.04 0.03 0.03 0.03
0.02 0.04 0.05 0.05 0.05 0.06 0.06 0.07 0.07 0.07 0.08 0.08 0.10 0.13 0.14 0.12 0.10 0.10 0.11 0.09 0.08 0.09 0.08 0.08 0.06 0.04 0.04 0.04 0.03 0.02 0.03 0.02 0.02 0.04 0.07 0.08 0.06 0.05 0.05 0.04 0.05 0.04 0.04
0.02 0.03 0.03 0.04 0.05 0.05 0.06 0.08 0.07 0.07 0.08 0.08 0.09 0.12 0.12 0.09 0.09 0.09 0.09 0.08 0.07 0.07 0.06 0.06 0.08 0.06 0.04 0.03 0.03 0.03 0.03 0.03 0.04 0.06 0.09 0.13 0.14 0.09 0.05 0.05 0.04 0.04 0.03
0.03 0.04 0.04 0.05 0.05 0.05 0.05 0.05 0.05 0.06 0.07 0.08 0.09 0.10 0.09 0.07 0.08 0.09 0.08 0.07 0.06 0.06 0.05 0.05 0.06 0.06 0.07 0.04 0.04 0.04 0.03 0.03 0.04 0.05 0.07 0.12 0.18 0.15 0.07 0.04 0.04 0.04 0.03
0.04 0.04 0.04 0.04 0.05 0.05 0.04 0.04 0.05 0.07 0.07 0.07 0.08 0.10 0.08 0.07 0.09 0.09 0.10 0.07 0.06 0.05 0.05 0.06 0.06 0.06 0.05 0.04 0.05 0.05 0.04 0.04 0.04 0.04 0.06 0.08 0.14 0.16 0.11 0.06 0.05 0.05 0.04
0.03 0.03 0.03 0.04 0.04 0.05 0.05 0.05 0.05 0.06 0.07 0.07 0.07 0.08 0.10 0.10 0.09 0.09 0.09 0.08 0.06 0.06 0.06 0.06 0.06 0.07 0.06 0.05 0.05 0.05 0.05 0.05 0.04 0.04 0.04 0.05 0.08 0.12 0.12 0.09 0.07 0.06 0.05
0.02 0.03 0.02 0.02 0.02 0.02 0.03 0.03 0.03 0.04 0.05 0.06 0.07 0.07 0.09 0.10 0.10 0.12 0.13 0.11 0.08 0.08 0.08 0.08 0.07 0.08 0.07 0.05 0.06 0.06 0.07 0.05 0.04 0.03 0.03 0.02 0.03 0.04 0.06 0.06 0.06 0.05 0.04
0.02 0.03 0.03 0.03 0.02 0.02 0.01 0.02 0.02 0.05 0.08 0.08 0.08 0.07 0.07 0.07 0.07 0.08 0.08 0.09 0.08 0.07 0.07 0.07 0.08 0.08 0.08 0.08 0.08 0.08 0.07 0.07 0.05 0.03 0.04 0.03 0.01 0.01 0.02 0.02 0.02 0.02 0.02
0.03 0.03 0.04 0.04 0.03 0.02 0.02 0.02 0.03 0.05 0.05 0.04 0.04 0.04 0.03 0.02 0.02 0.02 0.02 0.03 0.03 0.04 0.06 0.07 0.07 0.09 0.09 0.10 0.10 0.08 0.06 0.06 0.04 0.03 0.04 0.03 0.03 0.03 0.01 0.01 0.01 0.01 0.01
0.04 0.03 0.04 0.04 0.04 0.03 0.03 0.03 0.03 0.05 0.06 0.06 0.06 0.05 0.02 0.02 0.01 0.01 0.01 0.01 0.02 0.02 0.03 0.05 0.06 0.06 0.08 0.09 0.10 0.08 0.07 0.06 0.05 0.04 0.05 0.05 0.04 0.03 0.02 0.01 0.01 0.01 0.00
0.04 0.04 0.04 0.04 0.05 0.04 0.03 0.03 0.03 0.04 0.05 0.04 0.04 0.04 0.04 0.04 0.03 0.03 0.02 0.02 0.02 0.02 0.02 0.03 0.03 0.04 0.07 0.09 0.09 0.09 0.08 0.07 0.07 0.06 0.05 0.04 0.04 0.03 0.01 0.01 0.01 0.01 0.01
0.04 0.04 0.04 0.05 0.05 0.04 0.04 0.03 0.03 0.04 0.04 0.04 0.04 0.04 0.04 0.04 0.03 0.03 0.03 0.03 0.02 0.02 0.02 0.02 0.02 0.02 0.04 0.05 0.06 0.08 0.09 0.08 0.06 0.05 0.04 0.03 0.03 0.04 0.02 0.01 0.01 0.01 0.01
0.05 0.04 0.05 0.06 0.07 0.06 0.06 0.04 0.03 0.04 0.04 0.05 0.05 0.04 0.04 0.03 0.03 0.03 0.04 0.04 0.04 0.03 0.03 0.02 0.02 0.02 0.02 0.03 0.05 0.07 0.08 0.08 0.07 0.06 0.05 0.04 0.03 0.03 0.03 0.02 0.01 0.01 0.01
MSLP
1011.19 1011.38 1011.53 1011.64 1011.75 1011.85 1011.94 1012.02 1012.08 1012.10 1012.07 1012.00 1011.90 1011.81 1011.74 1011.72 1011.76 1011.88 1012.06 1012.29 1012.55 1012.83 1013.11 1013.41 1013.72 1014.06 1014.44 1014.84 1015.27 1015.70 1016.13 1016.51 1016.86 1017.16 1017.42 1017.65 1017.87 1018.10 1018.32 1018.55 1018.77 1018.98 1019.17
1011.02 1011.22 1011.38 1011.52 1011.63 1011.74 1011.84 1011.91 1011.97 1011.98 1011.95 1011.89 1011.80 1011.70 1011.63 1011.60 1011.63 1011.73 1011.87 1012.07 1012.29 1012.53 1012.79 1013.07 1013.36 1013.69 1014.05 1014.44 1014.86 1015.29 1015.72 1016.13 1016.52 1016.87 1017.19 1017.49 1017.76 1018.02 1018.27 1018.50 1018.72 1018.92 1019.11
1011.00 1011.20 1011.36 1011.51 1011.63 1011.75 1011.85 1011.93 1011.97 1011.98 1011.94 1011.86 1011.76 1011.65 1011.56 1011.51 1011.51 1011.56 1011.66 1011.81 1012.00 1012.21 1012.44 1012.70 1012.97 1013.27 1013.60 1013.97 1014.36 1014.77 1015.19 1015.62 1016.03 1016.43 1016.82 1017.18 1017.52 1017.84 1018.13 1018.40 1018.64 1018.86 1019.05
1011.09 1011.28 1011.44 1011.59 1011.73 1011.85 1011.96 1012.04 1012.08 1012.08 1012.02 1011.92 1011.80 1011.66 1011.53 1011.43 1011.38 1011.38 1011.44 1011.55 1011.70 1011.88 1012.09 1012.32 1012.57 1012.85 1013.15 1013.47 1013.82 1014.19 1014.59 1015.00 1015.42 1015.85 1016.28 1016.70 1017.11 1017.50 1017.86 1018.18 1018.47 1018.72 1018.94
1011.26 1011.42 1011.58 1011.73 1011.88 1012.02 1012.14 1012.23 1012.27 1012.26 1012.19 1012.07 1011.91 1011.73 1011.55 1011.40 1011.29 1011.24 1011.24 1011.31 1011.42 1011.58 1011.77 1011.98 1012.21 1012.46 1012.72 1013.00 1013.29 1013.61 1013.95 1014.32 1014.73 1015.16 1015.62 1016.09 1016.55 1017.01 1017.43 1017.82 1018.17 1018.47 1018.74
1011.45 1011.58 1011.73 1011.89 1012.05 1012.22 1012.36 1012.47 1012.52 1012.51 1012.43 1012.29 1012.10 1011.88 1011.66 1011.45 1011.28 1011.16 1011.11 1011.13 1011.21 1011.34 1011.51 1011.71 1011.92 1012.15 1012.37 1012.59 1012.83 1013.07 1013.35 1013.66 1014.02 1014.43 1014.88 1015.37 1015.87 1016.38 1016.86 1017.32 1017.72 1018.09 1018.40
1011.62 1011.72 1011.86 1012.03 1012.21 1012.40 1012.57 1012.71 1012.79 1012.80 1012.73 1012.58 1012.38 1012.13 1011.86 1011.60 1011.37 1011.19 1011.08 1011.05 1011.08 1011.18 1011.33 1011.52 1011.71 1011.91 1012.10 1012.28 1012.45 1012.63 1012.83 1013.07 1013.37 1013.73 1014.15 1014.62 1015.14 1015.67 1016.19 1016.70 1017.16 1017.58 1017.94
1011.78 1011.84 1011.96 1012.13 1012.33 1012.54 1012.75 1012.92 1013.04 1013.08 1013.04 1012.91 1012.71 1012.45 1012.15 1011.85 1011.57 1011.33 1011.16 1011.06 1011.05 1011.11 1011.23 1011.38 1011.56 1011.74 1011.90 1012.04 1012.16 1012.27 1012.40 1012.57 1012.79 1013.09 1013.46 1013.90 1014.40 1014.93 1015.47 1016.01 1016.51 1016.97 1017.38
1011.92 1011.94 1012.03 1012.19 1012.39 1012.62 1012.85 1013.06 1013.21 1013.29 1013.29 1013.20 1013.02 1012.77 1012.47 1012.14 1011.81 1011.52 1011.29 1011.13 1011.06 1011.06 1011.14 1011.26 1011.41 1011.57 1011.71 1011.82 1011.90 1011.97 1012.05 1012.15 1012.31 1012.54 1012.85 1013.24 1013.70 1014.21 1014.75 1015.30 1015.82 1016.31 1016.75
1012.05 1012.03 1012.08 1012.20 1012.38 1012.61 1012.84 1013.06 1013.25 1013.37 1013.41 1013.36 1013.22 1013.00 1012.71 1012.38 1012.03 1011.70 1011.41 1011.18 1011.04 1010.98 1011.00 1011.08 1011.20 1011.33 1011.46 1011.55 1011.62 1011.67 1011.71 1011.77 1011.88 1012.05 1012.31 1012.65 1013.07 1013.55 1014.07 1014.61 1015.14 1015.64 1016.11
1012.19 1012.11 1012.11 1012.17 1012.31 1012.49 1012.70 1012.90 1013.09 1013.23 1013.31 1013.31 1013.21 1013.04 1012.78 1012.46 1012.11 1011.75 1011.42 1011.14 1010.94 1010.82 1010.78 1010.81 1010.89 1011.00 1011.11 1011.20 1011.27 1011.31 1011.35 1011.39 1011.47 1011.61 1011.83 1012.13 1012.51 1012.95 1013.45 1013.97 1014.50 1015.01 1015.50
1012.34 1012.20 1012.12 1012.11 1012.16 1012.26 1012.40 1012.57 1012.73 1012.86 1012.96 1012.99 1012.94 1012.82 1012.61 1012.32 1011.99 1011.63 1011.28 1010.97 1010.71 1010.54 1010.45 1010.43 1010.48 1010.57 1010.67 1010.77 1010.84 1010.90 1010.94 1010.99 1011.07 1011.19 1011.38 1011.65 1011.99 1012.41 1012.88 1013.39 1013.92 1014.44 1014.93
1012.49 1012.28 1012.12 1012.01 1011.96 1011.95 1011.99 1012.07 1012.17 1012.28 1012.36 1012.41 1012.40 1012.32 1012.17 1011.94 1011.65 1011.31 1010.97 1010.65 1010.37 1010.16 1010.04 1009.99 1010.01 1010.09 1010.19 1010.29 1010.38 1010.46 1010.53 1010.59 1010.67 1010.79 1010.96 1011.21 1011.53 1011.92 1012.38 1012.87 1013.40 1013.92 1014.44
1012.62 1012.36 1012.12 1011.90 1011.73 1011.60 1011.52 1011.49 1011.50 1011.55 1011.60 1011.64 1011.65 1011.61 1011.51 1011.34 1011.11 1010.83 1010.53 1010.23 1009.96 1009.75 1009.62 1009.56 1009.57 1009.63 1009.74 1009.85 1009.97 1010.07 1010.15 1010.23 1010.32 1010.43 1010.59 1010.82 1011.12 1011.49 1011.93 1012.42 1012.94 1013.48 1014.00
1012.74 1012.43 1012.12 1011.81 1011.52 1011.27 1011.07 1010.92 1010.83 1010.79 1010.78 1010.80 1010.81 1010.80 1010.74 1010.63 1010.46 1010.25 1010.01 1009.77 1009.55 1009.37 1009.25 1009.21 1009.22 1009.30 1009.41 1009.54 1009.67 1009.78 1009.88 1009.96 1010.05 1010.15 1010.30 1010.50 1010.77 1011.12 1011.54 1012.02 1012.54 1013.08 1013.63
1012.81 1012.49 1012.13 1011.76 1011.38 1011.03 1010.72 1010.46 1010.26 1010.13 1010.06 1010.02 1010.01 1010.00 1009.98 1009.91 1009.81 1009.68 1009.51 1009.34 1009.19 1009.07 1009.00 1008.98 1009.03 1009.13 1009.25 1009.39 1009.53 1009.65 1009.75 1009.83 1009.91 1009.99 1010.11 1010.27 1010.51 1010.82 1011.21 1011.67 1012.19 1012.74 1013.29
1012.84 1012.53 1012.16 1011.76 1011.34 1010.92 1010.53 1010.19 1009.91 1009.69 1009.54 1009.45 1009.39 1009.36 1009.34 1009.30 1009.24 1009.17 1009.08 1008.99 1008.91 1008.86 1008.85 1008.89 1008.97 1009.10 1009.25 1009.41 1009.56 1009.68 1009.78 1009.84 1009.89 1009.94 1010.02 1010.14 1010.32 1010.59 1010.94 1011.37 1011.87 1012.41 1012.97
1012.81 1012.53 1012.19 1011.80 1011.38 1010.95 1010.52 1010.13 1009.79 1009.51 1009.29 1009.12 1009.01 1008.94 1008.89 1008.84 1008.81 1008.77 1008.73 1008.70 1008.68 1008.70 1008.75 1008.85 1008.98 1009.15 1009.33 1009.51 1009.67 1009.80 1009.89 1009.94 1009.97 1009.98 1010.01 1010.07 1010.20 1010.41 1010.71 1011.10 1011.57 1012.09 1012.63
1012.70 1012.47 1012.18 1011.84 1011.46 1011.05 1010.64 1010.24 1009.87 1009.54 1009.27 1009.04 1008.86 1008.72 1008.62 1008.55 1008.49 1008.45 1008.43 1008.44 1008.47 1008.53 1008.63 1008.77 1008.95 1009.16 1009.37 1009.58 1009.76 1009.90 1010.00 1010.05 1010.05 1010.04 1010.02 1010.04 1010.11 1010.26 1010.50 1010.84 1011.26 1011.74 1012.26
1012.49 1012.32 1012.09 1011.82 1011.50 1011.16 1010.79 1010.42 1010.05 1009.71 1009.39 1009.11 1008.87 1008.66 1008.50 1008.37 1008.27 1008.20 1008.16 1008.16 1008.20 1008.28 1008.41 1008.58 1008.79 1009.03 1009.27 1009.51 1009.72 1009.89 1010.01 1010.06 1010.07 1010.04 1010.00 1009.98 1010.00 1010.10 1010.28 1010.56 1010.93 1011.36 1011.83
1012.18 1012.05 1011.88 1011.68 1011.44 1011.16 1010.86 1010.54 1010.21 1009.87 1009.54 1009.22 1008.93 1008.67 1008.44 1008.24 1008.08 1007.96 1007.88 1007.85 1007.87 1007.94 1008.06 1008.23 1008.45 1008.71 1008.98 1009.24 1009.49 1009.69 1009.84 1009.93 1009.96 1009.94 1009.90 1009.86 1009.85 1009.91 1010.04 1010.26 1010.56 1010.94 1011.36
1011.78 1011.66 1011.53 1011.38 1011.21 1011.00 1010.77 1010.51 1010.22 1009.91 1009.59 1009.27 1008.95 1008.65 1008.37 1008.12 1007.90 1007.72 1007.59 1007.51 1007.48 1007.51 1007.60 1007.75 1007.96 1008.21 1008.49 1008.78 1009.06 1009.30 1009.49 1009.63 1009.70 1009.71 1009.69 1009.66 1009.65 1009.67 1009.76 1009.93 1010.18 1010.49 1010.85
1011.31 1011.19 1011.06 1010.94 1010.80 1010.65 1010.47 1010.27 1010.03 1009.77 1009.48 1009.18 1008.87 1008.56 1008.26 1007.98 1007.72 1007.50 1007.32 1007.18 1007.10 1007.08 1007.12 1007.22 1007.40 1007.62 1007.90 1008.19 1008.49 1008.77 1009.01 1009.19 1009.32 1009.38 1009.40 1009.40 1009.39 1009.41 1009.48 1009.61 1009.80 1010.05 1010.34
1010.85 1010.68 1010.53 1010.40 1010.27 1010.14 1010.00 1009.84 1009.65 1009.44 1009.20 1008.94 1008.67 1008.39 1008.11 1007.84 1007.58 1007.34 1007.13 1006.95 1006.82 1006.74 1006.73 1006.77 1006.89 1007.08 1007.32 1007.60 1007.90 1008.19 1008.47 1008.70 1008.87 1008.99 1009.07 1009.10 1009.12 1009.15 1009.21 1009.31 1009.46 1009.65 1009.87
1010.45 1010.22 1010.03 1009.86 1009.72 1009.58 1009.45 1009.31 1009.16 1009.00 1008.81 1008.61 1008.40 1008.18 1007.95 1007.73 1007.50 1007.28 1007.07 1006.88 1006.71 1006.59 1006.52 1006.50 1006.56 1006.68 1006.88 1007.12 1007.40 1007.69 1007.97 1008.23 1008.45 1008.61 1008.73 1008.81 1008.87 1008.91 1008.97 1009.06 1009.17 1009.31 1009.46
1010.19 1009.90 1009.65 1009.44 1009.26 1009.10 1008.95 1008.82 1008.69 1008.55 1008.42 1008.28 1008.14 1007.99 1007.84 1007.68 1007.51 1007.33 1007.15 1006.97 1006.80 1006.64 1006.53 1006.46 1006.45 1006.51 1006.63 1006.82 1007.05 1007.32 1007.59 1007.85 1008.08 1008.28 1008.43 1008.55 1008.63 1008.71 1008.77 1008.85 1008.94 1009.04 1009.14
Thickness
5774 5773 5771 5770 5768 5766 5765 5764 5763 5763 5762 5762 5762 5761 5759 5758 5757 5756 5754 5753 5752 5750 5749 5747 5746 5745 5743 5742 5741 5740 5739 5737 5736 5735 5734 5733 5733 5732 5730 5729 5728 5727 5725
5774 5772 5770 5767 5766 5764 5763 5763 5763 5762 5760 5760 5759 5759 5758 5757 5755 5754 5753 5751 5750 5748 5747 5746 5745 5744 5742 5741 5740 5738 5738 5737 5736 5735 5733 5732 5731 5731 5729 5728 5727 5726 5724
5773 5771 5769 5766 5765 5764 5763 5761 5761 5761 5759 5759 5757 5757 5756 5755 5754 5753 5751 5750 5748 5746 5745 5744 5743 5743 5742 5740 5739 5738 5737 5736 5735 5734 5732 5731 5730 5729 5728 5727 5725 5724 5723
5771 5770 5767 5765 5764 5763 5762 5760 5759 5758 5756 5756 5754 5754 5755 5754 5753 5752 5751 5749 5747 5746 5744 5743 5742 5741 5740 5739 5738 5737 5736 5735 5734 5733 5732 5730 5729 5728 5727 5725 5724 5723 5722
5769 5767 5766 5765 5764 5762 5760 5759 5757 5755 5753 5752 5752 5752 5752 5752 5751 5751 5750 5748 5746 5745 5743 5741 5740 5738 5737 5736 5736 5735 5735 5733 5732 5731 5730 5729 5728 5727 5726 5724 5723 5722 5721
5767 5765 5764 5763 5762 5760 5757 5756 5753 5753 5751 5750 5750 5750 5750 5749 5749 5748 5747 5746 5745 5744 5743 5741 5738 5736 5735 5734 5734 5734 5733 5732 5731 5730 5729 5728 5727 5726 5725 5723 5722 5721 5719
5765 5763 5762 5760 5759 5756 5755 5754 5752 5750 5749 5748 5745 5743 5745 5748 5746 5746 5745 5744 5744 5743 5742 5740 5738 5736 5734 5732 5732 5731 5731 5730 5730 5729 5727 5726 5725 5724 5723 5722 5720 5719 5718
5763 5762 5759 5757 5756 5754 5753 5752 5750 5747 5746 5747 5742 5737 5734 5735 5740 5745 5743 5742 5742 5741 5741 5740 5738 5736 5735 5732 5731 5730 5729 5729 5728 5727 5726 5724 5723 5722 5721 5720 5719 5718 5717
5762 5759 5758 5756 5754 5753 5751 5750 5748 5746 5742 5744 5745 5739 5731 5727 5732 5738 5740 5740 5740 5739 5739 5739 5738 5736 5734 5732 5730 5729 5728 5727 5726 5725 5724 5723 5721 5720 5719 5718 5718 5717 5716
5760 5758 5756 5754 5752 5751 5750 5749 5748 5746 5743 5740 5742 5743 5740 5737 5731 5729 5734 5738 5738 5737 5737 5738 5736 5734 5733 5731 5729 5728 5727 5725 5724 5723 5721 5720 5719 5718 5717 5716 5715 5715 5715
5758 5756 5754 5752 5750 5748 5747 5747 5747 5745 5743 5740 5739 5739 5739 5738 5737 5729 5725 5729 5732 5735 5736 5736 5735 5733 5731 5730 5728 5726 5725 5723 5722 5720 5719 5717 5716 5715 5714 5714 5713 5712 5712
5754 5753 5751 5749 5748 5746 5745 5745 5744 5742 5741 5740 5739 5738 5736 5733 5731 5729 5725 5725 5725 5729 5733 5734 5733 5732 5730 5728 5726 5725 5723 5721 5719 5718 5716 5715 5713 5712 5711 5711 5710 5709 5709
5750 5749 5748 5746 5745 5744 5743 5742 5740 5739 5739 5738 5736 5735 5735 5734 5733 5731 5726 5724 5724 5726 5728 5729 5731 5730 5729 5726 5724 5722 5720 5718 5716 5714 5713 5711 5710 5709 5709 5708 5707 5706 5705
5748 5747 5745 5744 5743 5742 5741 5740 5738 5737 5737 5736 5735 5733 5732 5732 5732 5730 5726 5722 5718 5719 5720 5722 5726 5727 5726 5724 5722 5719 5717 5715 5713 5711 5710 5708 5707 5707 5707 5706 5704 5703 5701
5747 5745 5743 5741 5739 5738 5738 5736 5734 5733 5733 5732 5731 5730 5729 5729 5729 5729 5728 5725 5717 5710 5711 5717 5720 5723 5723 5721 5719 5716 5714 5712 5710 5709 5707 5706 5704 5704 5704 5703 5701 5699 5697
5743 5741 5739 5737 5736 5735 5734 5732 5731 5730 5728 5728 5727 5725 5724 5725 5725 5726 5725 5724 5721 5715 5710 5714 5716 5719 5719 5718 5715 5713 5711 5709 5707 5705 5703 5702 5701 5700 5699 5698 5696 5694 5692
5736 5735 5733 5732 5731 5729 5729 5727 5726 5725 5724 5723 5722 5721 5720 5720 5720 5720 5720 5719 5717 5715 5709 5710 5713 5715 5714 5713 5711 5710 5708 5706 5703 5701 5699 5698 5696 5694 5693 5692 5690 5689 5687
5730 5728 5728 5727 5725 5724 5723 5721 5720 5720 5719 5717 5717 5716 5715 5716 5714 5714 5713 5712 5712 5711 5708 5704 5706 5707 5708 5707 5706 5706 5705 5703 5701 5698 5696 5694 5692 5690 5688 5687 5685 5684 5682
5724 5722 5721 5720 5719 5718 5717 5716 5715 5714 5714 5713 5712 5710 5710 5709 5708 5707 5707 5706 5706 5706 5704 5701 5700 5701 5701 5703 5701 5700 5700 5698 5697 5695 5691 5689 5687 5685 5684 5682 5680 5678 5677
5717 5715 5714 5714 5713 5712 5711 5709 5709 5708 5707 5707 5706 5706 5705 5703 5702 5701 5701 5699 5699 5697 5696 5695 5693 5693 5694 5696 5694 5691 5690 5690 5689 5689 5687 5684 5682 5680 5679 5676 5675 5673 5670
5711 5709 5707 5706 5706 5705 5704 5702 5701 5701 5700 5699 5699 5699 5698 5697 5696 5695 5695 5693 5692 5690 5689 5687 5686 5687 5685 5685 5685 5685 5683 5683 5683 5683 5680 5679 5677 5675 5673 5671 5669 5667 5664
5704 5702 5700 5699 5698 5698 5696 5694 5693 5693 5693 5691 5691 5691 5691 5690 5689 5689 5688 5687 5685 5684 5682 5680 5680 5679 5679 5679 5680 5679 5677 5675 5673 5677 5675 5673 5674 5671 5669 5667 5665 5662 5659
5696 5695 5693 5692 5690 5689 5688 5687 5686 5685 5685 5684 5684 5684 5685 5685 5684 5683 5682 5680 5680 5678 5677 5675 5673 5673 5674 5674 5673 5673 5672 5670 5669 5672 5670 5667 5668 5665 5664 5663 5660 5657 5654
5689 5687 5686 5685 5684 5683 5680 5679 5678 5678 5678 5678 5678 5678 5677 5676 5676 5675 5675 5675 5674 5673 5673 5671 5671 5671 5671 5670 5669 5668 5668 5668 5668 5668 5667 5661 5661 5659 5659 5655 5653 5650 5647
5683 5681 5680 5679 5677 5675 5673 5671 5670 5671 5671 5671 5672 5672 5671 5670 5668 5668 5667 5667 5667 5667 5667 5667 5667 5665 5665 5665 5664 5661 5661 5660 5658 5660 5661 5657 5655 5652 5651 5649 5646 5644 5641
5677 5675 5673 5672 5671 5669 5665 5664 5662 5664 5663 5664 5665 5664 5663 5662 5661 5660 5659 5659 5658 5659 5661 5660 5660 5660 5660 5660 5659 5656 5655 5653 5652 5652 5654 5651 5648 5645 5642 5642 5640 5637 5634